GSLV R/B, 62851

Orbit data source: Space-Track

GSLV R/B, 62851 is space debris in HEO originally from a launch on Wed, 29 Jan 2025 UTC launched from the Sirharikota (SRI). Debris objects in space refer to the collection of defunct objects orbiting the Earth. Examples of debris include non-operational satellites, rocket bodies, and fragments generated from explosions, collisions, or faulty payload assembly.

Loading next visibility...
Identifier
62851, 2025-020B
Orbit
HEO
Last TLE update
2 weeks ago
Origin
Manufacturer
ISRO
Mission
Spacecraft
Bus & Motor
CUS15, Unknown motor
Mass
2,630 kg wet, 2,630 kg dry
Launch date (UTC)
2025-01-29 (5 months ago)
Launch vehicle
Unknown
Launch site
Sirharikota (SRI)
Object type
Payload
Rocket body
Debris
Shape & HBR
Cyl, 8.7 m
Radar Cross Section
22.211 m², Large (>1 m²)

Expand to show TLE details & history

TLE from 2 weeks ago
0 GSLV R/B
1 62851U 25020B   25169.96121502  .00038517 -69713-6  17021-2 0  9990
2 62851  21.1230  30.1096 7337830 273.4917  13.0468  2.24607891  3134
Epoch: 2025-06-18T23:04Z
TLE epoch observation values (Epoch: 2025-06-18T23:04:08.977Z)
Latitude
0.00003°
Longitude
136.66087°
Altitude
4,513.863 km
Speed
7.55 km/s
True Right ascension
02h 00m 32s
True Declination
0° 00' 00"
Sunlit
Object was in daylight at epoch
Visualization orbit readout
Latitude
18.03063°
Longitude
-171.57815°
Altitude
17,523.04 km
Speed
4.137 km/s
Apparent Right ascension
05h 21m 41s
Apparent Declination
6° 51' 06"
Sunlit
Object is in daylight
Visualization observer readout
Local Sidereal Time
16:54:19
Azimuth
350.72° N
Elevation
-42.807°
Doppler factor
1
Orbital elements
Apogee altitude
36,331.69 km
Perigee altitude
179.824 km
Semi-major axis
24,633.894 km
Eccentricity
0.73378
Inclination
21.123°
RAAN
30.1096°
Arg. of periapsis
273.4917°
True anomaly
Unknown
Mean anomaly
13.0468°
Eccentric anomaly
Unknown
Mean motion
0.56136 °/min
Orbital period
641.3 mins
BSTAR
0.0017021
Loading maneuver chart data...
Loading SW <> Apogee altitude chart data...
Loading historical data...
Loading historical data...
Loading historical data...
Loading historical data...
Loading historical data...
Loading historical data...
Loading historical data...
Other satellites on launch #20 in the year 2025 (2025-01-29 UTC)

GSLV R/B Visibility forecast

Observer location: undefined°, undefined°

Span
Click to sort rows by Start time (UTC) header in descending order
Start Az.
Max El. time (UTC)
Max El. Az.
Max El.
End time (UTC)
End Az.
588 mins2025-07-03 14:45:51.365Z196.157° SSW2025-07-03 21:04:51.365Z161.637° S42.075°2025-07-04 00:33:51.365Z145.121° SSE
|